[ hide orbit diagram ]
For accurate long-term ephemerides, please instead use our Horizons system.This orbit viewer was implemented using two-body methods, and hence should not be used for determining accurate long-term trajectories (over several years or decades) or planetary encounter circumstances.
Orbital Elements at Epoch 2459200.5 (2020-Dec-17.0) TDB
Reference: JPL 23 (heliocentric ecliptic J2000)
Element | Value | Uncertainty (1-sigma) | Units |
e | .07192099265824291 | 5.0312e-08 | |
a | 2.621281289055648 | 1.6454e-08 | au |
q | 2.432756136710287 | 1.362e-07 | au |
i | 9.167024460134797 | 5.1132e-06 | deg |
node | 316.6910184989055 | 3.113e-05 | deg |
peri | 254.9375359073852 | 5.586e-05 | deg |
M | 249.5709085021423 | 5.1778e-05 | deg |
tp | 2459675.999283166630 (2022-Apr-06.49928317) | 0.00022524 | TDB |
period | 1550.13266538834 4.24 | 1.4595e-05 3.996e-08 | d yr |
n | .2322381871165928 | 2.1866e-09 | deg/d |
Q | 2.809806441401008 | 1.7637e-08 | au |
|
| | Orbit Determination Parameters
Additional Information
|
[ show covariance matrix ]
Physical Parameter Table
Parameter |
Symbol |
Value |
Units |
Sigma |
Reference |
Notes |
absolute magnitude |
H |
14.9 |
|
n/a |
MPO449626 |
|
diameter |
diameter |
5.200 |
km |
0.101 |
urn:nasa:pds:neowise_diameters_albedos::2.0[mainbelt] (http://adsabs.harvard.edu/abs/2011ApJ...741...68M) |
|
geometric albedo |
albedo |
0.086 |
|
0.021 |
urn:nasa:pds:neowise_diameters_albedos::2.0[mainbelt] (http://adsabs.harvard.edu/abs/2011ApJ...741...68M) |
|
|
103743 (2000 CS112) Discovered 2000-Feb-07 by CSS at Catalina |
Reference: 20051019/Numbers.arc | Last Updated: 2005-10-26 |
|
[ show close-approach data ]
|